| time (UTC) | temp F | wind direction | speed knots | gust knots | rain 1hr in | rain 24hr in | rain mn in | humidity % | barometer mb |
| 20260505213639 | 86 | 59 | 4.3 | 8.7 | 0.00 | 0.00 | 0.00 | 51 | 1014.2 |
| 20260505212640 | 86 | 90 | 4.3 | 11.3 | 0.00 | 0.00 | 0.00 | 51 | 1014.2 |
| 20260505211639 | 86 | 133 | 4.3 | 11.3 | 0.00 | 0.00 | 0.00 | 51 | 1014.3 |
| 20260505210641 | 86 | 59 | 2.6 | 7.8 | 0.00 | 0.00 | 0.00 | 50 | 1014.2 |
| 20260505205633 | 85 | 131 | 3.5 | 7.8 | 0.00 | 0.00 | 0.00 | 51 | 1014.2 |
| 20260505205113 | 85 | 155 | 3.5 | 8.7 | 0.00 | 0.00 | 0.00 | 50 | 1014.2 |
| 20260505203632 | 86 | 113 | 3.5 | 7.8 | 0.00 | 0.00 | 0.00 | 50 | 1014.3 |
| 20260505203548 | 85 | 137 | 5.2 | 10.4 | 0.00 | 0.00 | 0.00 | 52 | 1014.3 |
| 20260505201618 | 85 | 150 | 6.1 | 15.6 | 0.00 | 0.00 | 0.00 | 52 | 1014.3 |
| 20260505200617 | 85 | 106 | 4.3 | 12.2 | 0.00 | 0.00 | 0.00 | 51 | 1014.4 |
| 20260505195618 | 87 | 106 | 3.5 | 7.0 | 0.00 | 0.00 | 0.00 | 45 | 1014.5 |
| 20260505194619 | 88 | 51 | 2.6 | 7.0 | 0.00 | 0.00 | 0.00 | 48 | 1014.5 |
| 20260505193619 | 86 | 119 | 4.3 | 10.4 | 0.00 | 0.00 | 0.00 | 49 | 1014.7 |
| 20260505192615 | 87 | 19 | 4.3 | 9.6 | 0.00 | 0.00 | 0.00 | 48 | 1014.8 |
| 20260505192055 | 87 | 146 | 5.2 | 10.4 | 0.00 | 0.00 | 0.00 | 50 | 1014.9 |
| 20260505190617 | 87 | 117 | 4.3 | 11.3 | 0.00 | 0.00 | 0.00 | 49 | 1015.0 |
| 20260505185614 | 86 | 79 | 2.6 | 7.8 | 0.00 | 0.00 | 0.00 | 52 | 1015.1 |
| 20260505184613 | 84 | 117 | 2.6 | 7.0 | 0.00 | 0.00 | 0.00 | 52 | 1015.2 |
| 20260505183614 | 84 | 61 | 2.6 | 7.0 | 0.00 | 0.00 | 0.00 | 53 | 1015.3 |
| 20260505182615 | 84 | 79 | 3.5 | 7.8 | 0.00 | 0.00 | 0.00 | 53 | 1015.4 |
| 20260505181615 | 84 | 84 | 2.6 | 8.7 | 0.00 | 0.00 | 0.00 | 52 | 1015.6 |
| 20260505180614 | 84 | 98 | 2.6 | 8.7 | 0.00 | 0.00 | 0.00 | 53 | 1015.7 |
| 20260505175615 | 85 | 59 | 3.5 | 7.8 | 0.00 | 0.00 | 0.00 | 52 | 1015.7 |
| 20260505174613 | 85 | 31 | 4.3 | 10.4 | 0.00 | 0.00 | 0.00 | 51 | 1015.9 |
| 20260505174050 | 87 | 67 | 3.5 | 7.8 | 0.00 | 0.00 | 0.00 | 51 | 1015.8 |
| 20260505172616 | 87 | 92 | 4.3 | 8.7 | 0.00 | 0.00 | 0.00 | 50 | 1016.0 |
| 20260505171613 | 87 | 29 | 3.5 | 7.8 | 0.00 | 0.00 | 0.00 | 53 | 1016.0 |
| 20260505170614 | 84 | 96 | 3.5 | 8.7 | 0.00 | 0.00 | 0.00 | 51 | 1016.1 |
| 20260505165615 | 85 | 115 | 5.2 | 11.3 | 0.00 | 0.00 | 0.00 | 51 | 1016.2 |
| 20260505164613 | 83 | 95 | 3.5 | 9.6 | 0.00 | 0.00 | 0.00 | 54 | 1016.2 |
| 20260505163613 | 85 | 74 | 3.5 | 10.4 | 0.00 | 0.00 | 0.00 | 52 | 1016.2 |
| 20260505162616 | 85 | 89 | 3.5 | 8.7 | 0.00 | 0.00 | 0.00 | 53 | 1016.2 |
| 20260505161604 | 83 | 182 | 4.3 | 9.6 | 0.00 | 0.00 | 0.00 | 52 | 1016.2 |
| 20260505160605 | 85 | 88 | 4.3 | 8.7 | 0.00 | 0.00 | 0.00 | 55 | 1016.2 |
| 20260505152602 | 83 | 154 | 4.3 | 12.2 | 0.00 | 0.00 | 0.00 | 54 | 1016.3 |
| 20260505152043 | 82 | 105 | 4.3 | 10.4 | 0.00 | 0.00 | 0.00 | 59 | 1016.4 |
| 20260505151047 | 82 | 120 | 6.1 | 12.2 | 0.00 | 0.00 | 0.00 | 57 | 1016.4 |
| 20260505140549 | 79 | 94 | 5.2 | 10.4 | 0.00 | 0.00 | 0.00 | 67 | 1015.9 |
| 20260505125010 | 73 | 124 | 3.5 | 7.0 | 0.00 | 0.00 | 0.00 | 79 | 1016.0 |
| 20260505124022 | 73 | 96 | 1.7 | 6.1 | 0.00 | 0.00 | 0.00 | 80 | 1016.1 |
| 20260505122538 | 72 | 96 | 1.7 | 5.2 | 0.00 | 0.00 | 0.00 | 84 | 1016.1 |
| 20260505122014 | 70 | 95 | 0.9 | 4.3 | 0.00 | 0.00 | 0.00 | 88 | 1016.1 |
| 20260505120534 | 69 | 35 | 0.9 | 3.5 | 0.00 | 0.00 | 0.00 | 91 | 1016.0 |
| 20260505115533 | 67 | 287 | 0.0 | 1.7 | 0.00 | 0.00 | 0.00 | 93 | 1015.8 |
| 20260505114530 | 65 | 287 | 0.0 | 0.0 | 0.00 | 0.00 | 0.00 | 93 | 1015.9 |
| 20260505113532 | 64 | 286 | 0.0 | 0.0 | 0.00 | 0.00 | 0.00 | 94 | 1015.6 |
| 20260505112528 | 64 | 286 | 0.0 | 0.0 | 0.00 | 0.00 | 0.00 | 94 | 1015.5 |
| 20260505111527 | 63 | 286 | 0.0 | 0.0 | 0.00 | 0.00 | 0.00 | 94 | 1015.2 |
| 20260505110530 | 63 | 48 | 0.0 | 0.9 | 0.00 | 0.00 | 0.00 | 93 | 1015.3 |
| 20260505101514 | 62 | 48 | 0.0 | 0.0 | 0.00 | 0.00 | 0.00 | 93 | 1014.9 |
| 20260505100512 | 62 | 48 | 0.0 | 0.0 | 0.00 | 0.00 | 0.00 | 93 | 1014.7 |
| 20260505095510 | 62 | 48 | 0.0 | 0.0 | 0.00 | 0.00 | 0.00 | 93 | 1014.6 |
| 20260505094943 | 62 | 48 | 0.0 | 0.0 | 0.00 | 0.00 | 0.00 | 93 | 1014.5 |
| 20260505093511 | 62 | 48 | 0.0 | 0.0 | 0.00 | 0.00 | 0.00 | 93 | 1014.4 |
| 20260505092510 | 62 | 48 | 0.0 | 0.0 | 0.00 | 0.00 | 0.00 | 93 | 1014.4 |
| 20260505091945 | 63 | 48 | 0.0 | 0.0 | 0.00 | 0.00 | 0.00 | 93 | 1014.6 |
| 20260505090515 | 63 | 48 | 0.0 | 1.7 | 0.00 | 0.00 | 0.00 | 93 | 1014.3 |
| 20260505085501 | 64 | 48 | 0.0 | 0.9 | 0.00 | 0.00 | 0.00 | 93 | 1014.3 |
| 20260505084500 | 64 | 48 | 0.0 | 0.9 | 0.00 | 0.00 | 0.00 | 93 | 1014.3 |
| 20260505083501 | 63 | 48 | 0.0 | 0.9 | 0.00 | 0.00 | 0.00 | 92 | 1014.3 |
| 20260505082502 | 63 | 48 | 0.0 | 0.9 | 0.00 | 0.00 | 0.00 | 92 | 1014.3 |
| 20260505081501 | 63 | 48 | 0.0 | 0.0 | 0.00 | 0.00 | 0.00 | 92 | 1014.3 |
| 20260505080926 | 63 | 48 | 0.0 | 0.0 | 0.00 | 0.00 | 0.00 | 92 | 1014.3 |
| 20260505075451 | 63 | 48 | 0.0 | 0.0 | 0.00 | 0.00 | 0.00 | 91 | 1014.4 |
| 20260505074941 | 63 | 48 | 0.0 | 0.0 | 0.00 | 0.00 | 0.00 | 91 | 1014.3 |
| 20260505073450 | 64 | 48 | 0.0 | 0.9 | 0.00 | 0.00 | 0.00 | 91 | 1014.5 |
| 20260505072452 | 64 | 48 | 0.0 | 2.6 | 0.00 | 0.00 | 0.00 | 91 | 1014.6 |
| 20260505071451 | 63 | 48 | 0.9 | 2.6 | 0.00 | 0.00 | 0.00 | 91 | 1014.4 |
| 20260505070448 | 63 | 48 | 0.0 | 1.7 | 0.00 | 0.00 | 0.00 | 90 | 1014.6 |
| 20260505065449 | 64 | 48 | 0.0 | 0.0 | 0.00 | 0.00 | 0.00 | 90 | 1014.6 |
| 20260505064448 | 64 | 48 | 0.0 | 0.0 | 0.00 | 0.00 | 0.00 | 89 | 1014.9 |
| 20260505063939 | 65 | 48 | 0.0 | 0.9 | 0.00 | 0.00 | 0.00 | 88 | 1014.9 |
| 20260505062921 | 65 | 48 | 0.0 | 1.7 | 0.00 | 0.00 | 0.00 | 88 | 1015.0 |
| 20260505061450 | 65 | 48 | 0.9 | 1.7 | 0.00 | 0.00 | 0.00 | 87 | 1015.1 |
| 20260505060446 | 66 | 48 | 0.0 | 1.7 | 0.00 | 0.00 | 0.00 | 86 | 1015.3 |
| 20260505055447 | 66 | 48 | 0.9 | 1.7 | 0.00 | 0.00 | 0.00 | 86 | 1015.4 |
| 20260505054447 | 66 | 48 | 0.0 | 1.7 | 0.00 | 0.00 | 0.00 | 86 | 1015.5 |
| 20260505053448 | 66 | 48 | 0.0 | 1.7 | 0.00 | 0.00 | 0.00 | 85 | 1015.6 |
| 20260505052446 | 67 | 48 | 0.0 | 1.7 | 0.00 | 0.00 | 0.00 | 85 | 1015.8 |
| 20260505051434 | 67 | 48 | 0.0 | 0.0 | 0.00 | 0.00 | 0.00 | 84 | 1015.9 |
| 20260505050434 | 67 | 48 | 0.0 | 1.7 | 0.00 | 0.00 | 0.00 | 85 | 1016.1 |
| 20260505041433 | 68 | 10 | 1.7 | 3.5 | 0.00 | 0.00 | 0.00 | 83 | 1016.1 |
| 20260505040433 | 67 | 82 | 0.9 | 2.6 | 0.00 | 0.00 | 0.00 | 84 | 1016.0 |
| 20260505035430 | 67 | 82 | 0.9 | 2.6 | 0.00 | 0.00 | 0.00 | 83 | 1016.2 |
| 20260505034431 | 67 | 82 | 0.9 | 1.7 | 0.00 | 0.00 | 0.00 | 83 | 1016.1 |
| 20260505033432 | 67 | 82 | 0.9 | 1.7 | 0.00 | 0.00 | 0.00 | 82 | 1016.3 |
| 20260505032903 | 68 | 82 | 0.9 | 2.6 | 0.00 | 0.00 | 0.00 | 82 | 1016.2 |
| 20260505031427 | 68 | 82 | 0.9 | 2.6 | 0.00 | 0.00 | 0.00 | 81 | 1016.2 |
| 20260505030428 | 68 | 82 | 0.9 | 3.5 | 0.00 | 0.00 | 0.00 | 81 | 1016.2 |
| 20260505025428 | 69 | 80 | 0.9 | 2.6 | 0.00 | 0.00 | 0.00 | 80 | 1016.2 |
| 20260505024427 | 69 | 81 | 0.9 | 3.5 | 0.00 | 0.00 | 0.00 | 79 | 1016.2 |
| 20260505023427 | 70 | 81 | 1.7 | 4.3 | 0.00 | 0.00 | 0.00 | 78 | 1016.1 |
| 20260505022420 | 70 | 94 | 1.7 | 3.5 | 0.00 | 0.00 | 0.00 | 78 | 1016.2 |
| 20260505021902 | 71 | 81 | 2.6 | 7.0 | 0.00 | 0.00 | 0.00 | 76 | 1016.0 |
| 20260505020419 | 71 | 100 | 2.6 | 7.8 | 0.00 | 0.00 | 0.00 | 76 | 1016.1 |
| 20260505015408 | 71 | 87 | 2.6 | 4.3 | 0.00 | 0.00 | 0.00 | 76 | 1016.0 |
| 20260505014402 | 71 | 67 | 1.7 | 3.5 | 0.00 | 0.00 | 0.00 | 75 | 1016.0 |
| 20260505013400 | 71 | 108 | 2.6 | 7.0 | 0.00 | 0.00 | 0.00 | 74 | 1015.8 |
| 20260505012350 | 71 | 85 | 1.7 | 4.3 | 0.00 | 0.00 | 0.00 | 73 | 1015.7 |
| 20260505011355 | 72 | 104 | 1.7 | 5.2 | 0.00 | 0.00 | 0.00 | 73 | 1015.5 |
| 20260505010344 | 72 | 89 | 2.6 | 7.8 | 0.00 | 0.00 | 0.00 | 72 | 1015.6 |
| 20260505005341 | 73 | 102 | 3.5 | 7.0 | 0.00 | 0.00 | 0.00 | 70 | 1015.6 |
| 20260505004338 | 73 | 75 | 2.6 | 7.0 | 0.00 | 0.00 | 0.00 | 69 | 1015.6 |
| 20260505003341 | 73 | 88 | 2.6 | 7.8 | 0.00 | 0.00 | 0.00 | 69 | 1015.4 |
| 20260505002334 | 74 | 113 | 3.5 | 8.7 | 0.00 | 0.00 | 0.00 | 68 | 1015.1 |
| 20260505001335 | 74 | 116 | 4.3 | 8.7 | 0.00 | 0.00 | 0.00 | 67 | 1015.0 |
| 20260505000815 | 75 | 109 | 5.2 | 11.3 | 0.00 | 0.00 | 0.00 | 66 | 1015.1 |
| 20260504235829 | 75 | 42 | 4.3 | 9.6 | 0.00 | 0.00 | 0.00 | 65 | 1015.0 |
| 20260504234322 | 76 | 98 | 3.5 | 11.3 | 0.00 | 0.00 | 0.00 | 64 | 1014.7 |
| 20260504233319 | 76 | 93 | 5.2 | 11.3 | 0.00 | 0.00 | 0.00 | 64 | 1014.5 |
| 20260504232321 | 77 | 106 | 5.2 | 9.6 | 0.00 | 0.00 | 0.00 | 63 | 1014.6 |
| 20260504231759 | 77 | 125 | 5.2 | 11.3 | 0.00 | 0.00 | 0.00 | 62 | 1014.5 |
| 20260504231237 | 78 | 90 | 3.5 | 11.3 | 0.00 | 0.00 | 0.00 | 61 | 1014.5 |
| 20260504225322 | 78 | 96 | 5.2 | 13.9 | 0.00 | 0.00 | 0.00 | 61 | 1014.5 |
| 20260504224322 | 78 | 120 | 6.1 | 14.8 | 0.00 | 0.00 | 0.00 | 61 | 1014.6 |
| 20260504223317 | 78 | 106 | 5.2 | 13.0 | 0.00 | 0.00 | 0.00 | 61 | 1014.7 |
| 20260504222318 | 78 | 113 | 6.1 | 13.0 | 0.00 | 0.00 | 0.00 | 60 | 1014.6 |
| 20260504221317 | 80 | 94 | 7.0 | 14.8 | 0.00 | 0.00 | 0.00 | 58 | 1014.5 |
| 20260504220317 | 79 | 121 | 7.0 | 14.8 | 0.00 | 0.00 | 0.00 | 59 | 1014.4 |
| 20260504215319 | 80 | 89 | 6.1 | 13.9 | 0.00 | 0.00 | 0.00 | 57 | 1014.5 |
| 20260504214316 | 80 | 121 | 6.1 | 14.8 | 0.00 | 0.00 | 0.00 | 56 | 1014.4 |